Wind_Speed
16 16 16 16 17 17 17 17 17 17 17 17 17 17 17 17 16 16 15 15 16 16 16 15 14 14 12 12 12 12 11 10 11 8 7 9 16 21 23 24 25 26 27 28 29 29 29 28 26 23 21 19 17 15 14 14 14 12 11 11 10 10 10 9 8 6 5 5 2 4 8 9 9 10 10 10 10 10 9 9 11 12 12 10 10 14 14 19
16 16 16 16 17 17 17 17 17 16 16 16 16 17 17 17 17 17 16 16 16 17 17 16 15 14 13 13 12 12 11 11 9 5 8 14 16 20 24 26 26 26 26 27 28 29 29 28 27 24 22 20 18 17 16 14 14 13 11 11 11 11 10 9 8 6 5 4 2 2 7 8 7 8 9 9 9 11 11 11 12 14 15 13 13 16 15 19
17 17 17 18 18 18 18 18 18 17 17 16 16 16 16 16 16 17 17 16 17 17 18 17 17 15 14 14 13 13 12 12 8 5 12 14 11 17 23 27 26 24 24 24 25 26 25 25 26 26 24 22 21 19 17 16 15 13 13 12 11 11 10 9 9 6 4 2 2 3 6 9 8 9 9 8 8 8 9 8 7 10 14 14 13 16 17 20
18 18 18 19 19 19 19 19 19 19 18 18 17 17 16 16 15 16 16 16 17 17 18 18 18 16 15 15 13 13 12 12 10 9 15 13 9 14 20 25 26 24 24 24 25 25 24 26 27 27 26 24 23 21 19 18 15 14 14 12 12 11 10 10 9 6 4 4 5 4 5 8 9 10 9 7 5 3 6 5 3 4 8 11 11 13 17 20
18 18 19 19 19 20 20 20 20 20 19 19 18 17 17 16 15 15 15 16 16 16 18 19 19 17 16 16 14 13 12 11 11 11 14 13 13 15 17 22 24 24 25 25 28 28 28 29 29 29 27 26 25 23 20 17 16 15 13 13 14 11 10 11 10 7 5 5 6 5 4 6 8 9 8 5 4 5 5 6 5 6 4 7 8 10 16 20
19 19 19 19 19 19 19 19 19 20 19 19 19 18 17 17 16 15 15 15 15 15 17 18 19 18 17 17 15 14 12 10 11 11 12 13 15 16 17 20 24 25 26 26 28 30 31 32 33 33 30 27 25 22 20 17 17 14 13 18 16 13 11 12 11 9 8 8 7 3 3 7 6 6 6 5 5 6 8 7 5 7 6 7 8 9 14 18
20 19 19 19 19 19 19 18 18 18 18 18 18 18 17 17 17 16 16 15 15 15 16 17 19 19 18 18 17 16 12 11 13 12 10 11 14 16 17 19 23 26 27 27 29 31 33 34 35 34 31 29 26 22 20 19 18 14 16 21 17 15 14 12 12 10 10 10 8 5 6 8 5 3 3 4 5 4 6 7 6 6 7 8 8 9 12 14
21 20 20 19 19 18 18 18 17 17 17 17 18 19 18 18 18 17 17 16 15 15 15 16 18 19 19 18 18 17 13 13 15 12 11 12 13 15 16 19 23 25 27 27 27 28 30 33 34 34 33 30 26 23 21 20 19 15 19 21 16 16 15 13 12 11 11 10 10 11 9 7 4 4 4 2 3 5 5 6 7 7 7 8 8 9 12 14
22 21 20 20 19 18 18 18 18 18 18 18 18 20 20 19 19 19 18 18 17 16 16 16 17 18 19 19 19 18 15 14 14 13 14 16 16 16 15 18 22 24 26 26 26 27 29 31 32 34 32 29 27 25 23 23 20 15 18 19 16 17 17 14 13 11 9 8 10 14 12 9 7 8 7 4 5 6 6 7 7 8 7 7 9 10 12 14
22 22 21 21 21 20 19 19 20 20 20 19 20 21 22 21 21 20 20 19 19 18 17 17 16 17 18 19 20 18 15 14 14 14 15 17 19 19 17 18 21 23 24 25 26 28 27 26 26 29 30 28 28 27 26 25 20 15 17 18 17 17 17 14 13 11 9 8 11 15 16 12 11 13 11 7 7 7 7 8 8 8 7 6 9 12 13 14
22 22 22 22 22 21 20 20 21 22 22 21 21 22 23 22 22 21 21 21 20 20 19 18 17 17 17 18 19 18 15 15 16 16 17 19 20 20 19 19 20 22 24 25 25 25 23 21 21 25 28 29 29 29 28 25 20 18 19 21 20 18 18 16 15 13 9 11 12 14 15 16 17 18 13 9 10 9 8 9 8 8 8 8 9 12 15 16
21 22 23 22 22 22 21 21 22 22 23 22 22 23 23 23 23 22 22 21 21 20 20 18 17 16 17 17 17 18 17 18 18 17 18 20 20 20 20 19 20 21 21 22 21 20 19 20 21 24 27 29 30 28 27 26 23 22 22 23 23 22 21 20 18 15 11 13 11 11 15 20 24 21 13 11 13 12 10 10 9 8 9 10 11 13 16 18
21 22 23 23 23 23 22 22 22 23 23 22 22 23 23 23 23 22 22 21 21 21 20 19 17 16 17 13 13 18 19 19 19 18 19 21 21 21 20 20 21 22 21 19 16 16 17 18 20 22 25 27 29 27 25 27 28 27 24 24 24 24 24 22 20 16 14 15 12 12 19 23 25 23 17 14 14 13 14 12 10 10 11 12 13 14 17 20
21 22 23 24 24 24 23 23 23 23 23 23 23 23 22 23 23 23 22 22 21 21 20 19 18 17 16 12 13 18 18 18 20 20 21 22 22 22 22 21 24 25 24 21 17 16 17 18 19 22 26 27 28 28 25 26 30 30 25 25 26 24 23 24 20 18 16 15 13 14 22 24 22 22 21 18 15 14 14 13 13 12 13 14 14 15 18 21
22 23 24 25 25 24 23 23 24 24 24 24 24 24 23 23 23 23 23 22 23 21 20 19 19 18 16 13 14 17 19 20 21 21 22 23 24 23 22 22 26 28 26 22 20 19 18 20 22 25 27 29 28 27 26 25 28 32 26 25 28 26 24 25 22 20 18 15 14 17 23 24 21 22 22 20 18 15 14 15 15 14 15 16 16 15 18 21
25 25 26 26 27 26 25 25 24 24 24 24 25 25 24 23 23 23 22 22 23 21 20 20 18 17 16 15 15 15 20 23 22 22 21 23 25 25 23 23 27 29 28 25 23 22 21 22 24 25 26 31 31 27 26 26 26 30 29 27 28 28 26 25 23 22 20 15 15 19 23 23 21 22 24 23 21 19 16 16 16 16 16 17 17 16 17 21
26 27 27 28 29 28 27 27 26 25 25 24 24 25 24 23 23 22 21 21 22 21 19 18 15 14 13 14 14 15 21 26 25 23 22 24 26 27 26 25 28 32 31 27 26 25 24 24 26 27 28 32 35 30 26 29 29 29 32 31 27 27 29 27 23 21 21 18 16 19 23 24 22 22 24 24 23 21 19 17 17 18 18 18 18 17 18 21
26 27 28 29 30 29 29 28 28 27 26 25 24 25 24 24 23 21 19 19 19 17 15 13 12 9 8 12 13 14 20 26 28 26 24 25 27 27 27 25 28 33 33 30 29 29 28 28 28 29 31 33 37 38 33 35 36 32 32 34 30 28 31 32 26 20 20 20 17 18 22 24 25 26 26 24 23 21 20 18 17 18 19 20 20 18 18 20
27 27 28 29 29 29 29 29 28 28 27 26 25 24 24 23 22 19 16 15 14 12 11 11 12 9 9 14 15 15 18 24 28 29 28 28 28 29 28 27 28 32 34 34 34 34 33 32 31 33 37 40 42 46 43 38 35 33 32 33 34 32 32 34 29 20 17 16 16 19 23 24 24 28 29 28 25 22 20 19 19 19 20 22 22 21 19 19
28 28 28 28 28 28 28 28 28 28 27 27 25 24 23 21 19 15 11 11 11 10 8 9 10 10 12 15 17 17 16 21 25 29 32 31 31 32 31 31 31 34 36 36 37 37 36 36 40 43 44 44 44 45 44 38 31 29 28 29 32 34 34 34 31 25 18 16 17 17 20 23 25 27 29 30 28 25 24 22 22 21 21 22 23 23 20 17
29 29 28 27 27 27 27 27 27 26 26 26 25 24 23 20 19 16 11 8 9 8 7 7 9 11 14 16 17 17 13 18 22 26 33 34 33 34 34 35 35 37 37 36 36 37 37 40 46 47 44 41 41 42 42 39 34 28 23 23 27 31 35 35 33 30 24 21 20 17 19 23 25 27 28 31 32 30 28 26 24 23 23 22 23 23 22 18
30 30 28 26 26 27 27 26 25 24 24 25 25 24 22 21 18 17 16 10 8 8 6 6 8 11 15 17 18 17 11 14 18 21 29 34 35 36 35 37 38 37 37 37 37 37 39 46 48 45 42 39 38 40 42 40 37 32 24 21 24 28 32 34 35 32 26 23 23 20 19 22 24 27 29 30 33 33 31 29 26 25 25 24 23 22 22 22
31 30 28 25 25 26 26 25 24 23 22 22 23 22 21 20 16 15 16 13 11 8 7 7 9 12 15 16 16 15 10 9 16 19 24 30 34 36 36 39 39 37 38 41 42 41 41 46 48 44 41 39 38 39 41 41 39 37 32 26 26 27 27 31 35 33 27 25 25 21 20 22 22 27 33 32 32 32 31 30 29 29 28 27 24 21 22 24
30 29 27 25 25 25 26 25 23 22 21 21 22 21 20 19 16 13 14 14 12 7 7 7 8 11 13 15 15 11 6 6 16 20 23 27 30 34 37 39 39 39 41 43 44 45 45 42 40 43 42 38 38 40 42 42 40 39 38 35 31 28 27 28 28 27 27 27 28 24 20 23 24 25 30 33 34 36 35 34 34 33 31 30 28 26 25 25
29 28 26 26 25 25 26 25 24 22 20 20 20 21 20 18 15 13 14 14 9 5 7 8 8 10 11 13 13 9 5 5 15 20 21 25 29 32 36 37 39 41 41 42 43 44 46 40 28 32 42 41 38 41 43 42 39 38 41 41 36 31 27 25 23 21 21 22 25 22 15 21 28 27 27 29 32 35 36 36 36 33 32 33 30 29 28 27
28 27 27 27 26 26 26 26 25 22 20 19 19 19 19 17 15 13 14 14 7 5 8 9 8 11 12 12 11 9 5 3 10 16 17 23 30 32 33 35 38 40 40 40 40 41 45 42 25 17 31 41 39 40 43 43 37 37 43 43 38 36 30 25 23 20 18 18 20 19 12 15 26 30 30 29 29 31 32 33 33 32 34 33 30 29 28 28
28 28 28 29 28 27 27 27 25 22 20 18 18 19 18 16 13 12 12 9 6 5 7 9 9 12 14 13 11 9 5 2 5 8 11 18 27 32 33 34 34 36 38 36 35 38 42 43 31 15 17 33 41 42 43 43 40 41 45 42 37 37 34 30 27 22 22 23 23 20 14 13 22 31 31 28 28 30 31 33 33 33 34 32 30 30 30 29
28 28 28 29 29 27 27 26 24 21 20 18 19 19 16 13 10 9 5 2 5 7 7 9 11 11 12 11 10 7 4 5 5 7 11 15 22 30 33 33 32 31 34 36 35 36 38 42 40 26 16 25 38 44 44 42 43 44 39 33 35 36 33 32 30 28 27 24 26 28 21 11 17 32 34 27 27 29 32 34 34 34 33 31 30 29 29 30
29 29 29 29 28 26 26 25 24 21 19 16 16 17 13 9 7 5 0 1 4 8 9 10 11 13 12 9 10 6 4 7 8 9 11 13 17 26 31 31 31 27 27 33 35 34 35 36 38 34 28 27 28 33 41 43 44 43 30 20 27 32 32 30 26 30 28 20 26 34 27 13 13 31 37 30 31 33 34 35 34 33 32 31 31 29 29 31
31 30 30 29 27 25 23 22 22 22 19 14 12 13 10 7 6 2 2 2 5 8 11 13 12 15 16 12 9 8 8 7 8 9 9 10 14 20 27 28 29 28 24 26 30 35 35 29 29 36 39 35 25 19 29 38 41 42 33 19 16 20 26 27 24 26 20 16 29 37 31 19 12 27 39 36 39 39 35 34 33 33 33 32 33 32 31 32
31 31 30 29 27 25 21 18 18 19 17 12 9 9 7 6 5 2 2 4 7 10 13 14 15 18 20 17 12 10 10 9 9 9 6 7 10 16 22 24 26 27 26 27 28 32 34 28 26 31 36 37 32 23 22 26 32 37 34 25 18 14 18 22 23 23 13 11 29 37 32 25 17 28 41 39 42 41 35 34 33 31 31 31 32 33 33 32
31 31 30 29 26 24 21 18 17 15 14 11 8 7 6 5 3 2 3 6 5 10 14 16 20 21 21 21 18 14 11 9 9 8 7 5 4 9 12 15 20 24 24 27 28 28 33 34 29 25 26 31 34 34 30 24 27 34 32 27 21 10 9 13 12 13 10 9 22 27 23 23 25 36 44 41 41 42 38 35 32 29 30 31 31 32 33 31
32 30 30 29 25 21 19 18 16 12 11 9 7 6 5 4 2 1 5 6 4 10 15 16 19 21 21 21 19 15 10 8 9 7 6 7 3 5 9 10 14 19 20 19 21 24 27 31 33 29 26 26 30 35 37 32 30 33 34 32 23 9 4 8 6 5 8 10 21 27 18 15 21 34 44 46 43 41 38 33 30 28 30 33 33 33 34 33
31 30 29 27 23 19 17 17 14 11 10 8 5 3 4 3 1 2 5 7 7 11 14 15 18 19 19 17 16 15 11 7 7 6 5 4 1 4 6 9 9 12 16 13 12 18 18 19 30 36 31 27 29 32 33 35 34 33 35 35 30 19 10 5 4 4 5 5 16 27 18 7 9 23 39 47 45 40 36 33 30 29 28 29 29 31 36 38
30 30 27 23 20 18 16 15 14 11 9 7 4 1 2 3 1 3 5 6 7 9 12 14 16 17 14 11 11 12 10 8 8 7 6 4 2 4 4 4 3 5 12 11 9 13 16 18 26 34 35 29 28 29 28 31 33 33 34 35 35 34 24 9 4 8 6 2 11 23 18 7 7 18 30 39 44 43 38 33 30 30 28 24 24 29 36 41
28 27 26 21 17 17 15 13 12 10 7 5 4 1 4 3 1 3 4 5 6 8 11 12 14 14 11 10 11 12 10 9 9 6 4 4 4 4 7 6 5 3 6 7 7 6 10 20 24 27 36 36 28 28 30 30 29 29 33 39 38 37 32 17 8 10 8 5 11 20 21 17 15 21 26 31 38 42 40 36 33 30 29 25 23 27 33 39
27 26 24 19 16 15 15 13 11 10 6 4 2 4 6 2 1 2 4 4 5 8 11 10 10 10 8 9 12 14 13 10 9 7 3 2 3 4 6 4 5 6 6 2 4 1 8 19 25 23 30 40 35 30 30 31 29 27 32 40 36 29 29 26 13 7 7 5 7 15 20 19 17 20 26 30 35 39 40 37 34 32 30 28 26 27 31 35
30 27 23 19 18 15 14 12 11 9 6 3 2 6 7 2 1 4 6 4 4 6 8 7 6 6 7 9 11 13 14 11 10 9 4 1 1 4 6 5 2 5 7 5 1 2 9 15 24 24 24 34 39 34 28 29 32 29 29 33 30 23 24 28 18 7 7 5 4 8 15 19 22 22 22 27 35 40 40 37 35 33 31 30 30 29 30 32
29 26 22 20 19 16 13 11 10 9 6 4 5 7 6 3 1 3 5 4 4 4 5 5 4 5 6 8 9 11 11 10 9 8 3 2 2 5 8 8 4 2 4 4 3 3 4 6 15 24 23 23 33 37 33 30 31 32 30 28 29 27 25 29 26 15 8 4 3 6 7 13 25 29 23 23 30 37 39 38 36 34 32 31 30 30 30 31
27 23 21 21 20 16 13 11 9 7 5 6 8 9 8 6 3 2 4 3 3 3 3 4 4 4 5 6 7 8 8 8 8 6 4 5 5 6 9 9 8 7 6 5 5 5 2 2 10 21 23 17 22 33 38 34 31 35 36 29 28 29 24 23 28 28 17 5 2 4 5 10 22 28 27 24 26 33 38 39 38 35 33 30 29 28 29 30
26 22 20 21 20 17 13 10 9 7 5 7 9 10 10 8 5 3 3 3 3 3 3 3 4 4 5 5 5 5 6 6 7 6 5 6 7 6 8 10 11 11 10 7 5 6 4 4 10 18 20 18 20 27 34 33 30 34 36 31 30 29 23 15 14 26 30 18 8 4 4 11 17 20 23 23 23 28 34 37 38 37 34 32 30 27 27 28
27 24 21 21 19 15 11 9 7 7 5 7 8 9 10 9 8 6 5 5 5 5 4 4 4 5 5 5 4 5 6 6 7 7 6 7 7 7 9 12 13 13 12 10 8 7 6 6 10 19 23 22 24 24 25 27 27 29 28 28 31 30 28 21 11 17 27 25 22 17 11 18 23 16 15 18 19 22 27 31 33 31 29 29 29 28 27 27
26 24 22 22 19 12 8 7 5 5 6 7 8 8 9 10 9 9 9 9 9 9 8 6 4 4 4 4 5 6 7 7 6 6 8 10 9 8 11 13 12 12 12 9 6 4 4 5 7 16 23 25 26 22 18 18 19 23 24 24 28 29 30 29 21 19 21 22 24 17 11 28 37 26 17 16 17 20 23 26 29 28 26 24 25 27 27 27
25 24 22 22 18 9 5 7 6 4 6 8 8 8 10 10 9 10 11 11 10 9 8 6 5 6 5 5 7 8 7 6 5 7 10 12 11 11 12 12 12 12 10 7 6 5 3 2 5 7 10 15 20 18 16 17 16 18 19 20 25 28 30 30 27 22 19 23 28 16 12 32 40 29 23 19 18 22 23 25 29 31 30 28 27 27 28 28
25 24 23 23 17 7 5 9 8 5 6 8 8 8 10 9 9 8 8 7 6 4 5 5 4 5 5 6 8 8 7 6 6 8 10 11 12 12 10 11 12 11 8 7 9 9 7 6 6 3 1 5 10 7 6 10 11 13 15 18 22 24 26 26 23 19 19 26 31 24 24 38 34 23 22 19 18 21 20 21 27 32 35 35 32 30 30 31
26 23 23 23 16 8 8 11 9 9 8 8 8 8 8 6 6 6 6 7 6 6 7 6 5 6 7 8 9 8 6 7 8 10 11 12 12 12 11 11 12 12 9 7 9 9 9 10 11 10 10 13 14 12 10 13 14 14 14 18 20 18 18 18 17 21 24 25 29 31 34 41 37 30 29 26 24 22 19 17 19 25 31 32 29 27 28 33
27 24 23 21 15 9 9 10 10 9 7 6 6 6 6 5 4 5 6 8 8 9 9 7 7 9 8 9 11 9 7 9 11 11 12 12 12 13 13 11 11 13 12 7 10 11 10 13 15 16 18 19 21 22 18 16 19 20 17 16 18 14 13 16 21 26 25 20 25 34 37 39 43 41 36 33 32 30 27 25 22 23 26 27 28 28 29 32
26 23 22 20 14 10 9 9 9 8 6 5 5 5 5 5 4 4 5 8 8 8 10 9 9 9 8 10 11 11 10 12 13 12 12 12 13 13 13 11 10 12 11 8 9 10 10 14 17 17 19 20 22 22 18 17 20 22 20 17 15 14 14 20 26 29 28 24 24 30 36 41 45 42 34 33 32 30 28 27 26 27 28 29 31 33 32 33
25 22 20 18 14 11 9 8 9 8 5 5 5 6 6 6 5 5 5 6 7 8 10 11 11 11 10 11 12 12 12 12 14 14 13 15 16 15 14 14 12 11 10 8 8 9 10 13 14 16 20 22 21 17 14 16 19 22 20 15 15 17 18 21 26 30 33 31 27 28 35 43 45 41 37 35 33 30 27 25 24 23 25 27 29 31 32 37
24 22 19 16 11 8 6 7 7 7 6 6 6 7 7 7 7 5 6 8 8 9 11 12 13 13 12 12 13 13 12 12 15 17 16 18 19 17 16 16 14 12 11 9 8 10 11 12 10 13 20 22 18 13 10 12 17 20 18 13 14 19 18 18 22 28 31 34 35 36 37 41 44 43 41 38 34 30 27 24 22 21 23 26 27 28 30 35
21 19 17 15 8 6 6 6 6 7 8 9 9 9 9 8 8 7 7 8 8 8 10 11 12 13 12 12 13 13 13 14 17 18 19 21 22 20 19 18 17 17 14 11 10 11 14 14 12 12 17 19 15 11 10 12 15 18 17 13 12 14 15 16 19 24 29 33 40 43 42 42 43 42 42 41 36 32 28 24 22 22 23 22 21 22 25 29
19 16 16 13 6 4 6 6 6 8 10 11 12 12 11 10 9 9 8 5 4 8 12 12 12 13 12 12 13 14 15 17 18 19 19 21 22 22 21 20 19 20 17 13 13 13 13 14 14 11 13 16 13 9 9 10 10 13 15 13 10 7 10 12 15 22 28 31 37 44 45 45 44 42 43 42 39 35 32 29 26 23 19 16 15 16 19 22
Wind_Direction
339 336 334 332 329 328 325 323 321 317 315 311 308 305 302 300 299 297 297 296 295 294 293 291 289 286 281 276 273 269 269 270 271 271 265 236 221 217 214 217 217 217 216 213 212 211 210 209 211 212 210 209 206 206 204 200 201 204 199 186 172 153 136 127 122 104 62 16 326 214 199 188 181 175 166 164 162 160 165 174 176 172 174 174 176 194 205 186
344 341 338 336 333 332 329 328 326 323 321 317 313 309 305 302 299 296 294 292 292 291 290 289 287 287 283 277 272 268 268 267 271 279 254 237 224 219 215 219 220 217 216 215 214 214 213 212 214 214 212 211 206 208 210 208 205 204 206 191 172 154 143 134 126 109 59 19 324 213 197 189 181 188 181 173 171 169 168 169 175 172 171 180 180 185 202 193
344 341 339 336 334 333 331 330 328 327 325 322 320 316 312 308 303 298 294 290 288 287 287 287 286 285 284 280 274 269 267 266 263 235 245 246 232 224 217 220 223 219 217 216 216 216 216 215 217 216 213 210 207 211 212 214 209 204 210 196 176 159 146 135 121 104 76 82 224 206 190 187 180 186 189 185 183 184 174 159 167 178 179 185 185 185 197 195
342 340 338 336 335 333 332 331 329 329 327 325 323 320 318 314 311 304 297 290 285 283 284 284 283 282 282 280 276 271 266 266 260 232 246 254 241 230 221 222 225 220 216 214 214 212 211 212 214 215 215 210 206 209 213 217 212 207 210 190 173 164 148 141 126 112 107 123 181 203 199 186 179 182 188 182 168 176 177 151 116 164 193 193 191 190 192 193
338 337 336 336 335 334 333 332 331 330 329 328 327 326 324 321 317 310 302 294 287 283 280 280 280 279 278 277 276 273 267 268 262 239 244 247 236 232 223 221 223 221 217 213 212 209 207 208 209 211 213 212 208 207 212 219 217 216 206 177 171 169 156 152 141 133 140 145 176 208 219 186 175 177 181 167 104 67 125 131 96 113 165 206 210 200 186 190
335 333 334 334 335 335 334 334 333 332 331 331 331 332 332 329 324 318 311 301 293 286 278 276 275 275 274 273 274 270 265 264 256 242 244 241 233 234 225 216 217 219 219 215 214 212 207 206 208 210 211 211 211 210 213 217 221 223 196 177 176 172 165 161 154 151 155 162 182 226 243 202 187 178 177 146 114 85 113 128 110 115 144 203 224 212 185 186
335 331 330 332 334 336 336 336 336 335 335 335 335 336 337 335 331 328 322 312 301 291 281 274 271 271 270 268 269 266 261 253 249 244 243 240 233 235 229 216 213 215 219 218 217 216 212 208 207 209 211 211 211 211 213 216 222 222 190 179 176 171 169 166 162 160 167 174 188 223 242 221 214 217 206 140 145 144 127 145 163 150 156 184 206 209 187 187
336 333 329 327 330 333 335 336 336 336 336 337 337 335 337 336 333 332 328 322 312 299 287 277 270 268 266 265 263 262 258 251 252 246 235 237 236 237 230 219 213 211 217 221 221 222 220 216 210 209 211 211 212 212 211 214 221 216 187 179 177 173 171 174 172 166 175 183 197 216 241 246 244 261 241 154 186 195 161 164 179 183 175 171 178 191 192 193
332 332 329 325 324 325 328 329 329 329 329 332 332 330 330 331 331 331 329 326 322 312 298 284 274 266 262 262 260 259 256 251 251 242 232 234 237 239 232 222 216 211 214 219 222 224 224 222 216 213 212 210 212 212 210 212 217 209 184 183 186 177 174 182 183 178 187 195 209 221 240 258 247 249 240 209 236 223 193 195 191 193 187 176 174 178 189 196
327 327 326 325 322 321 320 320 320 319 320 323 324 323 323 325 326 328 328 326 324 319 309 296 282 270 262 259 257 255 253 249 246 237 229 229 232 236 232 221 216 213 213 215 220 224 225 225 221 219 215 211 212 211 210 210 214 204 186 193 197 187 186 195 199 197 210 221 224 227 235 248 247 247 248 234 241 230 208 208 202 202 198 194 187 179 184 194
326 324 322 321 320 319 319 318 316 315 316 317 318 316 317 320 322 325 326 325 323 319 313 304 291 280 267 258 256 254 249 244 241 234 226 224 226 229 228 220 211 210 213 214 220 226 227 226 222 221 217 213 213 213 213 210 211 207 200 203 203 203 203 203 209 207 225 231 223 227 234 245 245 243 248 252 259 250 227 216 208 209 208 213 204 188 185 190
325 323 321 319 317 316 317 318 317 317 317 317 315 313 314 317 320 323 325 324 322 317 311 304 297 290 275 262 259 255 243 237 237 232 226 222 222 224 224 218 207 204 211 216 222 226 228 226 221 218 217 216 214 215 216 210 210 212 214 212 207 218 218 206 208 208 221 223 213 231 241 238 233 234 243 251 259 258 247 232 217 216 218 221 214 200 191 188
327 324 322 320 317 315 314 314 315 317 319 320 316 313 314 316 318 322 324 324 320 312 308 303 300 294 283 274 261 249 239 235 236 230 225 222 219 221 221 215 203 195 200 209 220 226 227 226 225 219 216 218 216 216 215 210 213 214 218 220 218 231 225 205 207 213 215 213 209 234 239 230 222 226 240 251 253 249 247 241 225 221 222 224 215 205 198 192
331 328 325 322 320 318 316 313 312 314 317 319 316 313 314 316 318 320 322 323 316 308 307 305 303 297 291 285 258 242 233 231 230 225 222 219 216 217 217 211 199 191 191 194 199 212 221 222 224 220 216 218 217 217 214 212 217 216 220 227 230 240 226 203 208 218 215 212 217 234 240 237 225 225 236 246 248 242 242 243 235 226 221 225 221 211 203 198
337 333 330 326 323 322 320 315 312 312 313 315 314 311 313 315 316 319 321 319 312 309 311 309 307 301 296 285 260 242 228 224 223 221 218 214 211 212 214 207 198 192 189 190 191 195 206 215 219 218 214 214 215 217 214 213 217 217 220 226 230 236 221 204 209 218 217 216 222 230 239 244 236 232 238 245 246 240 239 240 239 234 225 226 230 222 209 203
339 336 332 328 325 325 323 318 314 312 312 312 311 310 312 315 316 319 321 317 312 314 316 312 309 304 295 281 264 241 225 223 221 217 214 209 206 208 209 203 197 193 189 191 192 190 197 207 216 221 218 213 213 213 212 213 214 215 218 221 226 229 220 211 211 214 218 221 226 227 235 242 238 236 240 245 249 245 241 237 236 237 233 231 234 230 215 207
340 337 333 329 325 324 322 318 316 314 312 311 310 310 312 314 317 321 322 318 315 319 320 316 310 298 285 276 262 236 221 220 220 216 210 206 204 205 205 200 195 194 191 192 195 194 198 204 210 217 218 215 212 209 212 215 210 208 214 218 222 223 222 218 211 212 219 224 232 233 237 243 240 238 238 243 247 244 239 237 235 236 236 235 236 233 222 214
340 337 334 330 326 323 321 317 315 314 313 312 312 311 313 315 318 323 323 319 319 323 325 321 318 308 282 279 267 238 221 218 218 215 208 204 203 204 205 199 196 196 192 193 199 200 201 205 209 214 218 217 212 208 211 214 208 204 210 215 218 219 222 220 211 212 220 225 237 241 243 245 243 243 244 245 244 239 238 241 240 238 239 238 238 238 228 220
339 338 335 331 327 324 322 318 316 315 313 313 314 313 315 316 318 323 326 326 326 331 337 331 335 339 306 290 278 253 228 217 217 214 209 205 201 201 203 199 197 200 197 196 200 202 203 205 208 213 216 213 209 207 209 212 209 208 211 215 218 219 221 220 214 211 216 229 242 245 248 249 246 245 245 247 245 241 242 245 245 241 241 240 241 242 234 227
338 338 337 334 330 327 325 322 319 317 315 314 313 314 315 315 315 318 328 343 340 338 346 338 334 333 313 302 291 274 245 220 217 213 210 207 201 200 201 200 198 201 204 204 205 204 204 207 210 213 213 210 207 207 209 211 209 210 214 217 220 222 223 220 218 217 218 236 247 249 257 255 252 250 247 246 245 242 242 244 245 242 241 240 240 242 239 233
337 339 338 335 332 330 328 326 324 322 319 317 316 317 320 321 323 322 321 350 356 337 333 335 333 328 320 319 313 301 268 227 217 212 211 209 204 203 202 201 200 202 206 207 208 206 207 212 216 217 215 211 210 209 211 213 210 208 211 217 221 225 225 221 221 225 227 238 245 250 262 259 253 252 249 245 242 241 242 246 248 246 244 242 240 240 240 237
337 338 339 336 333 330 329 328 327 326 323 321 322 323 325 327 331 328 318 328 353 334 305 305 326 326 321 327 332 330 302 234 215 212 213 210 207 207 206 205 206 208 208 205 204 205 209 217 221 220 217 214 212 212 212 214 215 212 209 215 221 224 227 224 223 228 231 236 242 248 259 258 253 252 250 247 245 245 247 252 256 255 251 247 241 238 236 234
337 337 338 336 332 330 329 328 329 328 325 324 325 325 326 327 331 331 319 319 335 328 283 276 305 313 312 324 338 341 322 236 206 207 212 210 210 210 208 208 210 211 211 207 204 205 210 220 224 220 217 217 215 213 213 216 219 218 217 219 220 220 225 226 224 229 233 233 239 249 258 257 253 249 247 248 249 250 252 256 260 262 259 255 251 245 237 234
337 337 338 334 332 331 328 329 330 329 326 325 325 324 325 328 331 329 319 317 327 321 286 284 304 313 315 329 345 354 333 228 199 203 211 211 209 210 211 210 211 213 214 212 209 210 214 220 225 221 217 218 217 214 213 217 221 222 221 222 222 218 220 225 226 231 235 234 238 247 257 256 248 243 244 246 248 249 252 254 255 257 258 257 254 248 242 238
337 338 337 332 332 331 328 329 331 331 328 324 322 321 321 325 327 321 318 322 326 303 288 299 316 329 331 336 350 358 332 241 202 202 211 214 209 209 211 209 211 215 215 213 211 215 218 219 226 227 220 217 218 217 215 216 222 226 225 222 222 221 221 227 228 232 239 238 238 240 248 253 246 242 243 245 246 248 249 250 251 252 253 253 250 246 242 238
338 339 336 331 332 333 330 329 330 330 329 325 319 315 315 319 320 317 319 320 309 275 281 298 317 329 330 332 343 346 328 253 206 205 213 219 215 210 209 209 213 216 214 212 212 218 220 218 222 229 223 220 218 219 218 216 221 228 227 222 223 226 228 232 232 236 244 241 235 229 228 251 250 244 243 245 249 250 249 249 249 249 249 249 249 247 242 235
338 339 336 332 334 335 331 328 327 328 328 324 318 312 310 312 314 315 319 314 297 288 282 294 311 326 335 335 337 348 348 293 221 226 234 231 222 216 212 209 212 217 215 213 216 222 220 217 215 209 219 223 219 219 219 216 219 228 228 225 226 230 233 235 237 241 244 245 243 231 224 250 255 244 240 243 248 249 249 249 249 248 247 248 248 247 244 236
336 336 335 333 334 334 329 325 324 325 324 320 316 314 312 310 310 312 326 335 302 301 294 298 306 318 334 333 327 344 345 306 282 270 267 249 229 222 219 213 211 216 218 217 220 223 222 220 215 204 204 221 222 223 221 216 219 227 230 231 231 232 235 239 242 246 250 255 256 244 232 244 256 244 239 240 244 245 245 246 247 248 249 248 245 244 242 237
333 334 334 333 333 331 327 324 323 322 320 319 316 314 314 311 303 295 261 173 293 304 306 305 305 308 311 310 309 302 280 297 305 302 292 269 240 227 224 221 215 213 219 224 227 227 226 227 222 212 211 221 224 226 225 221 221 224 228 236 236 234 237 242 246 250 253 257 254 248 239 236 253 245 237 235 238 239 240 243 245 247 248 247 243 239 237 236
332 333 334 333 331 328 326 324 323 321 320 323 319 311 312 306 288 261 156 251 290 308 307 305 310 313 309 301 296 280 263 278 294 304 300 274 252 231 224 226 222 216 216 224 232 232 231 234 231 224 221 222 223 224 226 226 226 227 226 227 237 237 236 240 245 248 252 250 245 246 242 237 251 245 236 233 235 236 239 241 244 246 247 247 244 240 239 236
332 333 334 333 329 325 322 322 322 320 321 330 330 314 310 294 266 181 159 268 293 307 309 313 317 320 324 322 318 307 288 277 282 298 301 267 251 230 219 221 223 222 220 221 227 231 231 231 232 231 228 225 224 225 227 228 229 228 225 221 228 231 228 234 239 235 235 245 244 245 243 236 238 241 236 232 234 236 239 241 242 247 246 242 240 239 238 235
332 334 334 332 329 323 321 322 324 324 326 337 342 321 297 272 237 189 274 285 299 318 324 329 326 328 333 329 326 326 311 291 294 317 1 0 265 210 194 201 212 218 222 225 227 229 229 228 227 231 234 229 226 227 228 229 228 225 219 214 216 212 205 218 224 225 230 249 245 244 242 234 238 245 239 232 233 233 235 240 242 246 244 235 231 231 231 230
333 336 335 332 329 323 319 322 327 331 329 334 345 320 267 228 186 257 313 317 314 324 328 330 329 330 331 327 328 333 326 303 296 307 8 18 18 138 143 171 201 212 218 225 228 229 232 232 228 228 232 229 226 225 223 222 223 221 213 206 204 185 176 214 212 238 253 250 244 244 245 237 241 249 241 231 230 231 232 238 242 245 244 238 235 235 233 231
334 337 335 331 327 323 317 318 326 334 328 328 346 312 240 181 128 317 342 344 323 323 328 329 329 328 331 332 332 337 339 326 315 307 323 344 43 100 133 172 188 206 212 213 218 221 226 229 224 222 224 225 225 224 223 224 223 223 216 210 210 205 199 209 192 223 254 254 243 242 240 215 223 249 245 233 229 230 232 235 239 244 245 247 251 252 247 240
338 337 335 333 328 322 318 317 323 332 328 325 339 309 180 135 74 334 344 345 330 328 329 328 326 325 333 339 333 344 352 343 340 327 319 340 30 54 65 147 153 184 195 198 211 220 227 228 220 218 217 219 223 224 226 224 222 225 219 211 215 215 211 213 228 235 241 250 239 234 230 221 234 256 252 238 232 231 232 233 237 241 244 252 261 258 252 245
341 338 335 335 328 320 317 313 313 319 317 311 321 64 125 134 59 336 330 330 329 324 322 325 324 324 339 343 331 341 346 336 343 348 339 354 5 23 34 54 57 77 162 188 208 219 243 233 218 213 214 213 216 221 223 221 217 217 213 210 216 219 216 219 247 252 235 225 232 230 235 243 246 254 253 244 237 232 231 235 236 237 242 251 256 253 249 245
344 342 339 334 326 321 318 308 299 300 295 290 304 100 108 122 228 277 292 310 315 312 319 325 326 326 335 338 331 330 331 329 338 351 5 356 332 343 358 31 59 57 64 90 197 231 294 246 217 205 210 211 212 218 223 225 222 213 210 215 216 217 221 224 233 248 222 227 242 228 234 237 231 241 245 242 240 233 229 233 234 236 240 246 250 250 248 245
347 345 340 334 329 328 322 308 292 282 273 265 180 133 123 127 242 273 285 306 303 305 323 332 335 335 327 331 331 326 328 332 336 346 7 51 344 316 319 325 23 51 45 40 191 271 312 264 225 210 208 209 210 214 219 225 228 224 222 223 213 201 210 215 217 231 219 229 272 236 235 232 225 230 234 236 240 236 231 230 232 233 235 240 245 248 247 245
347 344 338 336 336 333 325 312 293 274 257 233 187 161 157 167 201 287 296 303 287 295 342 351 346 339 326 327 327 324 329 332 340 350 346 332 317 279 294 302 285 322 7 11 340 291 326 297 238 221 215 212 209 211 214 216 221 226 230 229 218 212 211 209 211 219 217 214 251 250 248 235 234 237 233 233 239 237 233 231 231 230 231 234 239 244 246 243
344 342 340 340 340 336 328 315 295 273 245 226 209 196 201 202 196 288 307 287 261 278 349 3 353 340 330 326 321 324 330 326 334 347 325 309 308 278 282 289 280 289 313 337 338 302 272 311 255 227 216 212 206 207 213 215 212 215 220 218 214 216 216 213 218 220 221 223 193 225 254 243 242 243 239 234 237 239 236 233 233 232 232 232 234 240 241 238
343 344 343 342 342 337 329 318 299 284 254 226 216 212 219 222 217 253 290 263 254 279 308 333 335 332 330 325 317 314 317 318 319 322 323 322 319 300 288 295 300 298 300 310 321 310 308 309 272 245 229 217 202 199 208 213 211 211 215 214 213 215 211 205 217 219 221 229 229 227 269 255 245 246 244 236 230 236 237 234 236 237 236 235 234 238 237 232
345 347 346 344 344 337 327 322 304 289 259 224 217 217 226 236 237 241 254 256 265 278 289 314 318 314 312 307 306 303 299 307 303 291 308 327 327 317 306 307 311 306 305 309 307 304 316 317 276 259 250 226 199 189 196 204 206 208 212 213 215 219 217 213 216 215 216 225 237 246 269 263 248 238 242 236 223 227 233 234 238 239 238 239 238 239 237 233
349 348 346 346 346 340 334 339 317 285 258 234 227 230 240 253 258 259 264 264 267 274 279 289 286 276 283 283 289 295 294 297 280 268 300 316 316 319 318 318 318 311 307 302 298 306 314 328 295 268 258 233 206 198 208 213 209 210 211 208 209 216 220 223 230 230 219 217 226 235 261 258 250 240 234 233 221 219 223 228 233 235 235 235 235 237 236 237
351 348 346 348 351 346 343 353 342 294 265 252 245 246 257 268 268 265 269 271 273 271 265 262 259 259 263 268 281 293 300 297 266 265 295 306 311 320 322 322 320 315 309 287 273 285 272 306 321 296 273 242 221 219 234 236 222 214 210 202 205 212 218 225 232 234 230 225 221 214 240 253 252 246 236 230 224 222 220 224 233 237 239 237 235 235 233 234
352 350 347 350 356 356 348 352 347 327 297 277 271 266 265 268 265 259 255 254 258 243 223 218 232 259 264 258 272 288 293 286 276 282 294 299 307 315 317 320 319 314 310 284 265 270 261 257 280 292 201 221 224 225 260 268 248 226 209 197 200 209 216 225 233 231 233 234 224 215 236 249 250 246 236 224 219 224 224 226 233 236 240 242 241 240 239 236
351 353 351 350 353 353 349 349 342 332 316 295 291 286 275 265 254 247 235 224 217 210 215 220 227 251 263 261 270 283 280 277 283 287 289 293 301 307 309 317 319 312 304 270 247 254 255 251 261 263 246 244 256 269 296 308 288 257 229 207 202 207 218 227 232 230 233 237 230 228 242 252 252 248 244 239 233 233 234 234 229 225 228 232 233 238 246 243
348 353 353 352 352 349 347 346 340 333 318 300 295 287 283 279 255 245 242 235 227 224 235 252 260 264 274 278 282 288 284 283 288 287 287 292 296 298 301 308 313 310 307 276 243 242 244 247 253 261 259 261 269 272 279 293 287 275 262 235 217 218 232 234 228 225 229 236 238 237 242 253 257 254 253 255 254 252 250 249 246 238 236 237 237 247 256 248
346 349 353 354 349 337 338 344 345 339 316 297 292 279 286 293 283 274 252 238 239 249 254 259 263 266 278 288 290 294 296 294 295 293 294 297 296 294 296 303 308 307 308 287 244 229 239 250 249 255 261 259 264 273 281 286 281 274 268 258 247 247 246 241 231 222 222 230 240 242 243 249 255 256 259 263 265 266 264 264 264 261 258 255 255 261 259 241
343 346 351 354 342 326 331 341 346 348 331 310 303 290 291 293 292 297 272 249 261 278 276 268 264 266 275 282 285 289 297 301 298 297 298 297 295 292 291 296 299 300 304 287 240 219 238 252 249 253 258 254 258 273 282 274 270 267 261 265 278 271 252 242 234 223 223 230 237 242 246 248 251 255 262 267 270 275 277 278 276 269 262 261 262 262 249 229
342 343 351 357 341 318 326 340 347 353 344 331 322 305 301 298 289 292 290 282 285 286 281 275 271 271 274 280 285 286 291 295 290 290 293 290 287 287 286 287 287 290 297 284 243 221 229 239 240 247 254 254 254 260 259 254 260 262 255 261 286 280 261 246 238 227 225 230 232 236 244 249 250 254 260 264 269 275 278 279 276 271 269 268 262 251 235 221
341 342 353 0 344 309 321 340 349 349 340 334 330 322 322 316 298 296 298 296 300 297 290 285 278 273 275 284 288 284 286 288 284 284 286 283 280 280 277 278 281 282 284 277 257 231 222 230 232 238 258 260 244 237 245 242 248 253 250 259 281 278 259 246 236 228 225 226 230 234 240 245 248 253 257 261 265 270 275 278 277 277 277 267 250 233 220 216
342 344 355 2 350 298 323 341 351 353 347 345 342 333 327 321 313 315 313 302 307 301 296 298 293 288 292 296 294 290 291 292 290 290 289 282 278 274 270 270 273 273 271 268 259 238 223 231 233 236 263 257 233 240 257 236 229 238 240 251 264 247 225 221 221 223 222 221 225 232 237 242 247 252 255 258 262 266 272 276 279 282 274 245 220 211 207 206
Height
3139 3138 3137 3135 3134 3133 3132 3132 3131 3130 3129 3128 3128 3127 3127 3126 3126 3126 3126 3125 3124 3124 3123 3123 3123 3124 3124 3124 3124 3123 3124 3124 3124 3125 3125 3125 3125 3126 3128 3129 3130 3131 3132 3134 3135 3138 3140 3142 3144 3146 3148 3149 3150 3151 3151 3152 3152 3152 3152 3152 3153 3153 3154 3154 3155 3155 3156 3156 3157 3157 3158 3159 3160 3160 3161 3161 3162 3162 3163 3163 3164 3164 3166 3167 3168 3170 3171 3172
3138 3137 3136 3134 3133 3132 3131 3130 3129 3128 3128 3127 3126 3125 3125 3125 3124 3124 3124 3124 3123 3122 3121 3121 3122 3122 3122 3122 3122 3122 3122 3123 3123 3124 3123 3122 3123 3124 3126 3126 3127 3129 3131 3133 3135 3137 3140 3142 3143 3145 3147 3148 3150 3150 3150 3151 3151 3152 3152 3153 3153 3153 3154 3155 3155 3155 3156 3156 3157 3158 3158 3159 3160 3161 3161 3162 3162 3162 3162 3163 3164 3164 3165 3166 3167 3169 3171 3172
3138 3136 3135 3134 3132 3131 3130 3129 3128 3127 3126 3125 3124 3124 3123 3123 3122 3122 3122 3122 3121 3120 3120 3120 3120 3120 3121 3121 3121 3121 3121 3121 3122 3123 3121 3120 3122 3123 3124 3124 3126 3129 3131 3133 3135 3137 3140 3141 3143 3144 3146 3147 3148 3149 3150 3150 3151 3152 3152 3153 3153 3154 3154 3155 3156 3156 3156 3156 3157 3158 3158 3160 3160 3161 3162 3162 3162 3162 3163 3163 3164 3165 3165 3166 3167 3168 3170 3172
3137 3136 3134 3133 3132 3130 3129 3128 3127 3126 3125 3124 3123 3122 3122 3121 3121 3120 3119 3119 3119 3119 3118 3118 3118 3118 3119 3119 3119 3120 3120 3120 3120 3121 3119 3120 3122 3121 3122 3123 3125 3128 3130 3132 3133 3135 3137 3138 3140 3142 3144 3145 3146 3147 3149 3149 3151 3151 3152 3153 3154 3154 3155 3155 3156 3156 3156 3156 3157 3158 3159 3159 3160 3161 3162 3162 3163 3163 3163 3164 3165 3165 3166 3166 3167 3168 3169 3172
3137 3135 3134 3132 3131 3129 3128 3127 3126 3124 3123 3122 3121 3121 3120 3119 3119 3118 3117 3117 3117 3117 3116 3116 3115 3116 3117 3117 3117 3118 3119 3118 3118 3119 3118 3119 3119 3119 3120 3122 3124 3126 3128 3129 3130 3131 3132 3134 3137 3139 3141 3143 3145 3146 3148 3149 3150 3151 3151 3153 3153 3154 3154 3155 3156 3156 3156 3156 3157 3158 3159 3160 3160 3161 3162 3162 3163 3163 3164 3165 3165 3165 3166 3168 3168 3169 3170 3171
3136 3134 3133 3131 3130 3129 3127 3126 3125 3123 3122 3121 3120 3119 3119 3118 3117 3116 3115 3114 3114 3114 3114 3113 3113 3114 3114 3115 3115 3116 3117 3117 3117 3117 3117 3117 3118 3118 3118 3120 3122 3124 3125 3127 3128 3128 3129 3131 3133 3135 3138 3141 3144 3146 3148 3149 3149 3150 3151 3152 3152 3153 3154 3155 3155 3155 3156 3156 3158 3159 3160 3160 3161 3161 3162 3163 3164 3164 3164 3165 3166 3166 3166 3168 3169 3169 3170 3172
3135 3134 3132 3131 3129 3128 3127 3125 3124 3123 3121 3120 3119 3118 3117 3116 3115 3114 3113 3113 3112 3112 3111 3111 3111 3111 3112 3112 3113 3114 3116 3116 3115 3116 3117 3116 3117 3116 3117 3118 3120 3122 3123 3124 3126 3126 3127 3129 3131 3134 3137 3140 3143 3146 3148 3148 3149 3150 3150 3151 3152 3153 3153 3154 3155 3155 3156 3156 3158 3160 3160 3160 3161 3162 3162 3163 3164 3164 3165 3165 3166 3166 3166 3167 3168 3170 3171 3173
3134 3133 3131 3130 3129 3128 3126 3125 3123 3122 3121 3119 3118 3117 3116 3115 3114 3113 3112 3111 3110 3109 3109 3108 3108 3109 3109 3110 3110 3111 3113 3113 3113 3115 3116 3115 3115 3115 3116 3117 3118 3120 3121 3123 3125 3126 3128 3129 3131 3134 3135 3138 3142 3145 3146 3147 3148 3149 3150 3151 3152 3152 3153 3154 3154 3155 3156 3156 3157 3159 3159 3160 3162 3162 3163 3163 3164 3164 3165 3165 3166 3166 3167 3167 3168 3170 3172 3173
3133 3132 3131 3129 3128 3127 3126 3124 3123 3121 3120 3119 3117 3116 3115 3114 3113 3112 3111 3109 3108 3108 3107 3106 3106 3106 3106 3107 3108 3109 3111 3112 3112 3113 3114 3114 3114 3114 3115 3116 3117 3119 3120 3122 3124 3125 3126 3128 3131 3133 3135 3139 3142 3143 3145 3145 3147 3149 3151 3151 3151 3152 3153 3153 3154 3154 3155 3156 3156 3158 3159 3160 3161 3162 3162 3163 3163 3164 3165 3165 3165 3166 3166 3167 3168 3169 3171 3173
3132 3131 3129 3128 3126 3125 3124 3123 3122 3120 3119 3118 3117 3115 3113 3112 3111 3110 3109 3108 3107 3106 3105 3104 3103 3103 3104 3104 3105 3107 3108 3109 3110 3111 3111 3112 3112 3112 3114 3115 3116 3118 3120 3121 3122 3123 3125 3129 3133 3134 3137 3139 3140 3141 3142 3143 3146 3149 3150 3151 3150 3151 3152 3152 3152 3153 3154 3155 3155 3156 3158 3160 3161 3160 3160 3162 3163 3163 3164 3165 3165 3165 3166 3167 3168 3169 3171 3173
3131 3129 3128 3126 3125 3124 3123 3122 3120 3119 3118 3117 3115 3113 3112 3111 3110 3109 3108 3106 3105 3104 3103 3102 3101 3101 3101 3102 3102 3104 3106 3107 3107 3108 3109 3109 3110 3110 3112 3113 3115 3117 3119 3120 3121 3123 3126 3129 3132 3134 3136 3137 3138 3139 3140 3143 3146 3147 3148 3149 3149 3150 3150 3150 3151 3152 3153 3153 3154 3156 3157 3160 3160 3158 3159 3161 3162 3162 3164 3164 3165 3165 3166 3167 3168 3169 3170 3172
3130 3128 3126 3124 3123 3122 3121 3120 3118 3117 3116 3115 3114 3111 3110 3109 3108 3107 3106 3105 3103 3101 3100 3100 3099 3099 3098 3099 3100 3100 3102 3103 3104 3105 3106 3107 3108 3109 3110 3112 3114 3117 3119 3121 3123 3124 3126 3128 3129 3131 3134 3135 3137 3138 3139 3142 3144 3144 3145 3146 3147 3148 3148 3148 3150 3151 3152 3152 3153 3156 3156 3156 3156 3155 3158 3160 3160 3161 3162 3163 3164 3164 3165 3167 3167 3168 3169 3171
3128 3126 3124 3122 3121 3120 3119 3118 3116 3115 3114 3113 3111 3109 3108 3107 3106 3105 3104 3103 3101 3099 3098 3097 3097 3096 3096 3098 3098 3096 3098 3100 3101 3102 3103 3104 3106 3107 3109 3111 3113 3116 3118 3120 3123 3125 3126 3127 3128 3130 3132 3133 3135 3136 3138 3140 3141 3142 3144 3144 3145 3146 3146 3147 3149 3150 3151 3151 3153 3154 3152 3151 3153 3155 3157 3159 3159 3160 3161 3162 3163 3163 3164 3166 3167 3167 3168 3169
3127 3124 3122 3120 3119 3118 3117 3116 3114 3113 3112 3111 3109 3107 3106 3106 3104 3103 3102 3101 3098 3096 3096 3095 3094 3094 3094 3095 3094 3093 3095 3097 3097 3098 3099 3101 3103 3105 3107 3109 3111 3113 3115 3118 3120 3122 3123 3125 3127 3128 3129 3131 3133 3135 3137 3138 3139 3140 3142 3142 3143 3144 3144 3147 3149 3149 3150 3151 3152 3153 3150 3148 3152 3154 3156 3158 3158 3159 3159 3160 3161 3162 3163 3165 3166 3167 3168 3168
3125 3123 3121 3119 3117 3116 3115 3113 3112 3111 3110 3108 3107 3105 3104 3104 3102 3101 3100 3098 3096 3094 3094 3093 3092 3091 3092 3092 3091 3091 3092 3093 3093 3095 3097 3099 3101 3103 3105 3107 3109 3111 3113 3116 3117 3119 3121 3122 3123 3124 3126 3129 3131 3132 3135 3136 3136 3138 3140 3139 3140 3142 3143 3146 3148 3148 3149 3150 3151 3152 3149 3147 3151 3153 3155 3156 3157 3158 3158 3159 3160 3161 3162 3164 3165 3166 3167 3168
3124 3122 3119 3117 3115 3114 3113 3111 3110 3109 3107 3106 3104 3102 3102 3102 3100 3099 3098 3096 3093 3092 3092 3090 3090 3090 3089 3088 3088 3089 3089 3089 3091 3093 3094 3097 3098 3100 3102 3105 3108 3109 3111 3113 3115 3117 3118 3119 3120 3122 3124 3126 3128 3130 3132 3133 3134 3135 3136 3137 3138 3140 3142 3144 3146 3146 3148 3149 3150 3149 3147 3147 3150 3152 3153 3155 3156 3157 3157 3158 3159 3160 3161 3162 3164 3165 3166 3167
3122 3120 3118 3115 3113 3112 3110 3109 3107 3106 3105 3104 3102 3100 3100 3099 3098 3097 3096 3093 3090 3090 3089 3088 3088 3087 3086 3085 3085 3085 3086 3087 3088 3090 3093 3095 3096 3098 3099 3102 3105 3107 3109 3111 3113 3114 3115 3116 3117 3119 3121 3122 3124 3128 3129 3128 3128 3131 3133 3134 3136 3138 3140 3141 3144 3146 3147 3147 3147 3148 3147 3147 3149 3151 3152 3154 3155 3156 3156 3157 3158 3159 3160 3161 3162 3164 3165 3166
3122 3119 3117 3114 3111 3110 3108 3106 3105 3103 3102 3101 3100 3098 3097 3097 3096 3095 3094 3091 3089 3088 3087 3087 3086 3085 3084 3083 3082 3082 3083 3085 3086 3089 3091 3092 3095 3097 3098 3101 3103 3105 3106 3108 3110 3111 3113 3113 3115 3116 3117 3118 3120 3121 3121 3120 3124 3128 3129 3131 3134 3136 3138 3139 3142 3144 3145 3146 3146 3147 3146 3146 3148 3150 3151 3152 3154 3154 3155 3156 3157 3158 3159 3160 3161 3162 3164 3165
3121 3118 3116 3113 3110 3108 3106 3104 3102 3101 3099 3098 3097 3096 3095 3095 3094 3093 3092 3089 3087 3087 3086 3085 3084 3084 3083 3081 3080 3080 3082 3084 3085 3087 3088 3090 3093 3095 3097 3099 3101 3103 3103 3104 3106 3108 3109 3110 3111 3110 3109 3109 3111 3113 3115 3119 3125 3128 3129 3131 3133 3135 3135 3137 3140 3143 3144 3144 3145 3145 3145 3145 3147 3148 3149 3151 3152 3153 3154 3155 3155 3156 3157 3158 3160 3161 3162 3164
3119 3117 3114 3111 3108 3106 3104 3102 3100 3098 3097 3095 3095 3094 3093 3093 3092 3092 3092 3089 3086 3086 3086 3084 3083 3083 3082 3080 3079 3079 3080 3082 3084 3085 3086 3088 3090 3093 3095 3096 3098 3099 3100 3101 3103 3105 3106 3106 3103 3101 3101 3104 3109 3113 3116 3121 3125 3127 3129 3130 3132 3133 3134 3136 3140 3142 3143 3143 3142 3143 3143 3144 3145 3145 3147 3149 3150 3151 3152 3152 3153 3154 3155 3156 3158 3159 3161 3163
3117 3115 3113 3110 3107 3105 3102 3100 3098 3096 3095 3093 3092 3091 3091 3090 3090 3089 3089 3088 3086 3085 3085 3084 3083 3082 3080 3079 3078 3077 3078 3080 3082 3084 3084 3086 3089 3090 3091 3092 3093 3094 3096 3100 3102 3103 3103 3100 3097 3097 3101 3107 3111 3115 3118 3120 3123 3125 3127 3128 3130 3131 3132 3135 3138 3139 3142 3142 3141 3142 3142 3141 3142 3143 3145 3146 3147 3148 3149 3150 3151 3152 3153 3154 3156 3158 3160 3162
3115 3113 3111 3109 3106 3103 3101 3099 3097 3095 3093 3091 3090 3089 3089 3089 3088 3087 3086 3086 3085 3084 3084 3083 3082 3081 3079 3078 3077 3077 3077 3078 3081 3082 3082 3085 3086 3087 3089 3090 3090 3091 3095 3097 3098 3099 3098 3094 3094 3099 3104 3109 3112 3114 3117 3119 3121 3123 3125 3126 3127 3128 3130 3133 3136 3137 3140 3140 3139 3140 3140 3139 3140 3141 3142 3143 3143 3145 3147 3148 3149 3151 3152 3153 3154 3156 3158 3160
3113 3111 3109 3107 3105 3102 3100 3098 3096 3094 3093 3091 3089 3088 3088 3087 3087 3086 3085 3084 3083 3083 3082 3082 3081 3080 3078 3077 3077 3077 3076 3077 3079 3080 3080 3082 3083 3085 3086 3087 3088 3091 3092 3091 3092 3093 3091 3090 3094 3100 3104 3107 3110 3113 3115 3117 3119 3120 3122 3123 3123 3126 3129 3131 3134 3136 3137 3138 3138 3139 3138 3137 3138 3139 3139 3139 3141 3142 3145 3146 3148 3149 3150 3151 3153 3154 3156 3158
3111 3109 3107 3105 3103 3101 3098 3097 3095 3094 3092 3090 3089 3087 3087 3086 3086 3085 3084 3083 3082 3081 3081 3081 3080 3079 3078 3077 3076 3076 3076 3076 3077 3077 3077 3078 3080 3082 3083 3085 3087 3088 3087 3088 3090 3089 3087 3090 3095 3099 3102 3106 3109 3111 3113 3115 3116 3117 3119 3120 3121 3125 3128 3129 3133 3135 3135 3136 3136 3137 3137 3134 3134 3136 3135 3136 3138 3140 3141 3143 3145 3146 3147 3149 3151 3153 3155 3157
3109 3107 3105 3103 3102 3099 3097 3095 3094 3093 3091 3090 3088 3086 3086 3085 3085 3084 3082 3081 3081 3080 3080 3079 3079 3078 3077 3076 3076 3076 3075 3075 3075 3075 3075 3076 3077 3078 3079 3083 3084 3084 3085 3088 3090 3088 3089 3093 3095 3097 3101 3104 3106 3108 3110 3112 3114 3115 3115 3117 3120 3124 3126 3129 3132 3133 3134 3134 3134 3136 3135 3131 3131 3133 3133 3134 3135 3136 3138 3140 3141 3142 3144 3146 3148 3150 3153 3155
3108 3106 3104 3101 3100 3098 3095 3093 3092 3092 3091 3089 3087 3086 3084 3084 3083 3083 3081 3080 3080 3080 3079 3078 3078 3077 3076 3076 3076 3075 3075 3075 3074 3074 3074 3074 3075 3075 3077 3079 3080 3082 3085 3089 3090 3087 3088 3093 3095 3097 3099 3101 3104 3106 3108 3111 3114 3113 3112 3116 3121 3123 3126 3128 3130 3132 3132 3132 3132 3134 3133 3130 3129 3129 3130 3132 3132 3133 3135 3136 3137 3139 3141 3143 3145 3147 3150 3152
3106 3104 3102 3099 3097 3096 3093 3091 3090 3089 3088 3088 3086 3084 3083 3083 3082 3081 3080 3079 3079 3079 3078 3077 3077 3076 3075 3074 3075 3075 3074 3074 3074 3073 3072 3072 3073 3074 3075 3076 3078 3081 3085 3088 3087 3083 3086 3091 3093 3095 3097 3099 3100 3101 3104 3109 3111 3109 3110 3117 3119 3121 3125 3126 3128 3130 3129 3130 3130 3130 3131 3129 3125 3125 3128 3130 3129 3130 3131 3132 3133 3135 3138 3140 3142 3145 3147 3149
3104 3103 3101 3098 3096 3094 3091 3089 3088 3087 3086 3085 3084 3082 3082 3081 3081 3080 3080 3080 3079 3077 3077 3077 3076 3076 3075 3074 3074 3075 3074 3074 3073 3072 3071 3071 3072 3073 3074 3075 3077 3079 3083 3084 3081 3081 3085 3087 3089 3093 3095 3095 3095 3097 3102 3107 3107 3107 3111 3116 3118 3121 3124 3125 3128 3128 3129 3129 3124 3124 3129 3128 3122 3121 3125 3126 3125 3125 3126 3127 3130 3132 3135 3137 3139 3142 3144 3146
3103 3101 3099 3096 3094 3092 3089 3087 3086 3085 3084 3083 3082 3080 3080 3080 3080 3079 3080 3081 3079 3076 3076 3076 3075 3075 3074 3074 3074 3074 3074 3073 3072 3071 3070 3070 3070 3072 3073 3075 3077 3078 3080 3081 3080 3082 3085 3086 3089 3093 3092 3090 3093 3097 3101 3104 3105 3107 3112 3115 3117 3120 3122 3125 3126 3126 3129 3126 3118 3119 3125 3125 3120 3118 3121 3122 3120 3121 3122 3125 3127 3130 3132 3134 3137 3139 3141 3144
3101 3099 3097 3094 3092 3090 3088 3086 3084 3082 3082 3081 3080 3079 3079 3079 3078 3079 3080 3079 3077 3075 3075 3074 3074 3073 3072 3072 3073 3073 3073 3073 3072 3070 3069 3069 3069 3071 3072 3073 3075 3077 3078 3079 3079 3081 3084 3086 3089 3089 3088 3090 3094 3097 3099 3101 3104 3107 3111 3115 3117 3119 3121 3123 3123 3125 3126 3117 3111 3116 3121 3123 3119 3114 3115 3116 3116 3118 3121 3123 3125 3127 3129 3131 3134 3137 3139 3141
3099 3097 3094 3092 3090 3088 3087 3085 3083 3081 3079 3079 3079 3077 3077 3078 3077 3078 3079 3077 3076 3075 3073 3073 3072 3071 3070 3070 3070 3071 3072 3072 3071 3069 3068 3068 3068 3069 3070 3072 3073 3076 3076 3076 3077 3079 3081 3084 3084 3085 3087 3091 3094 3096 3098 3100 3103 3106 3109 3113 3116 3117 3119 3121 3121 3123 3119 3107 3107 3114 3118 3120 3114 3107 3111 3113 3114 3117 3119 3121 3123 3125 3126 3128 3130 3133 3136 3139
3097 3095 3092 3090 3088 3085 3083 3083 3081 3080 3078 3078 3077 3076 3076 3077 3077 3077 3077 3076 3076 3074 3072 3072 3071 3070 3070 3069 3069 3070 3070 3070 3070 3069 3068 3067 3067 3067 3068 3069 3070 3072 3073 3073 3074 3076 3077 3079 3081 3084 3086 3089 3091 3093 3096 3098 3100 3103 3106 3110 3113 3114 3116 3117 3115 3114 3109 3103 3106 3112 3115 3113 3106 3103 3109 3111 3112 3115 3116 3119 3122 3123 3124 3126 3128 3130 3133 3136
3095 3093 3090 3087 3085 3083 3081 3080 3079 3078 3077 3076 3076 3076 3076 3076 3076 3076 3076 3076 3076 3074 3072 3072 3071 3070 3069 3068 3068 3068 3069 3069 3069 3069 3068 3068 3068 3067 3066 3067 3067 3067 3068 3070 3072 3074 3074 3076 3079 3082 3083 3085 3087 3088 3090 3093 3096 3099 3102 3105 3107 3109 3112 3112 3110 3108 3104 3103 3107 3111 3112 3107 3100 3101 3105 3106 3109 3112 3115 3118 3119 3121 3122 3123 3125 3128 3131 3133
3093 3090 3088 3085 3083 3082 3080 3078 3078 3077 3076 3075 3075 3075 3075 3075 3075 3075 3075 3075 3075 3073 3072 3072 3071 3070 3069 3068 3067 3067 3068 3068 3068 3068 3068 3068 3068 3067 3066 3066 3065 3066 3067 3069 3070 3071 3072 3071 3073 3077 3079 3081 3083 3084 3087 3091 3094 3096 3098 3102 3102 3103 3105 3106 3107 3105 3104 3104 3106 3108 3107 3099 3096 3098 3100 3104 3108 3110 3113 3116 3117 3119 3119 3121 3123 3125 3127 3130
3091 3088 3086 3084 3081 3079 3078 3077 3076 3075 3075 3073 3073 3073 3073 3074 3074 3074 3074 3074 3073 3073 3072 3071 3070 3069 3069 3068 3068 3067 3068 3068 3068 3068 3067 3067 3067 3067 3066 3065 3064 3065 3066 3067 3068 3068 3067 3066 3068 3072 3075 3079 3081 3083 3086 3090 3091 3093 3096 3099 3098 3097 3100 3103 3103 3102 3103 3104 3102 3099 3096 3093 3094 3096 3098 3103 3106 3108 3111 3113 3115 3116 3117 3119 3121 3122 3124 3126
3090 3087 3084 3082 3080 3078 3076 3075 3074 3074 3074 3073 3072 3072 3072 3072 3073 3073 3072 3072 3072 3071 3071 3070 3070 3068 3068 3068 3067 3068 3068 3067 3068 3067 3066 3066 3067 3067 3066 3065 3065 3064 3064 3065 3066 3066 3064 3062 3065 3069 3072 3076 3079 3080 3083 3085 3086 3089 3091 3091 3091 3095 3100 3102 3101 3100 3102 3101 3094 3091 3091 3092 3094 3095 3096 3100 3103 3105 3109 3111 3112 3114 3115 3118 3118 3119 3121 3122
3088 3086 3083 3080 3078 3076 3075 3074 3073 3073 3072 3072 3071 3071 3072 3071 3071 3071 3071 3071 3071 3070 3070 3070 3069 3068 3068 3067 3067 3067 3067 3067 3067 3067 3066 3066 3066 3066 3066 3065 3065 3065 3064 3064 3064 3065 3063 3060 3063 3067 3069 3072 3075 3077 3080 3081 3083 3085 3085 3086 3091 3097 3100 3101 3100 3098 3099 3096 3090 3088 3090 3091 3092 3091 3092 3097 3099 3102 3106 3108 3110 3112 3113 3115 3116 3117 3119 3120
3085 3083 3080 3078 3076 3075 3073 3072 3071 3071 3071 3071 3071 3071 3071 3071 3070 3070 3070 3070 3070 3070 3069 3069 3069 3068 3068 3067 3067 3066 3066 3066 3066 3066 3066 3065 3065 3065 3065 3065 3065 3064 3064 3064 3064 3065 3063 3060 3061 3064 3066 3068 3071 3074 3077 3078 3081 3083 3083 3085 3089 3092 3092 3094 3096 3094 3095 3094 3089 3087 3087 3087 3087 3087 3089 3094 3096 3099 3103 3105 3108 3109 3111 3113 3114 3115 3117 3118
3083 3081 3078 3076 3074 3073 3072 3071 3070 3070 3070 3071 3071 3070 3070 3070 3070 3070 3069 3070 3070 3069 3069 3069 3068 3068 3068 3067 3067 3066 3065 3066 3066 3066 3066 3065 3065 3064 3064 3064 3064 3064 3064 3064 3063 3063 3063 3062 3061 3061 3063 3065 3068 3070 3072 3074 3077 3081 3083 3084 3085 3086 3086 3088 3089 3089 3090 3092 3089 3087 3084 3082 3082 3085 3089 3092 3094 3098 3101 3102 3105 3107 3109 3111 3112 3113 3114 3116
3082 3081 3077 3074 3072 3071 3070 3069 3068 3068 3069 3069 3070 3069 3069 3069 3069 3069 3069 3069 3069 3068 3068 3068 3068 3068 3067 3067 3066 3066 3065 3065 3065 3066 3066 3065 3064 3063 3063 3063 3063 3063 3063 3063 3063 3062 3062 3063 3060 3059 3061 3063 3064 3067 3069 3072 3075 3077 3078 3079 3081 3083 3084 3085 3086 3086 3087 3088 3086 3086 3082 3078 3079 3083 3086 3090 3092 3095 3098 3099 3102 3104 3107 3109 3111 3112 3113 3114
3081 3079 3077 3074 3071 3070 3068 3068 3067 3067 3068 3068 3068 3068 3068 3068 3068 3069 3068 3068 3067 3067 3067 3067 3067 3067 3067 3067 3066 3065 3065 3065 3065 3065 3065 3064 3063 3062 3061 3061 3061 3061 3061 3061 3061 3061 3061 3061 3060 3058 3059 3060 3061 3064 3067 3070 3072 3073 3074 3075 3078 3080 3081 3083 3083 3082 3084 3084 3082 3083 3079 3075 3078 3082 3083 3088 3090 3092 3095 3097 3099 3102 3104 3107 3109 3110 3111 3113
3078 3077 3075 3073 3071 3069 3067 3067 3066 3066 3067 3067 3068 3068 3067 3067 3067 3068 3068 3067 3067 3066 3066 3066 3067 3066 3066 3066 3065 3065 3065 3064 3064 3064 3064 3063 3062 3061 3060 3059 3059 3059 3059 3059 3060 3059 3059 3059 3058 3057 3056 3057 3059 3062 3064 3065 3067 3069 3071 3073 3076 3078 3078 3079 3077 3077 3080 3081 3080 3082 3076 3070 3076 3082 3082 3085 3088 3090 3092 3094 3096 3099 3101 3104 3106 3108 3110 3111
3078 3075 3074 3072 3070 3068 3067 3066 3066 3066 3066 3067 3067 3067 3066 3066 3067 3067 3067 3067 3067 3066 3065 3065 3066 3065 3065 3065 3064 3064 3064 3064 3063 3063 3062 3062 3061 3060 3058 3057 3057 3057 3058 3058 3058 3058 3058 3058 3058 3056 3055 3057 3059 3061 3062 3063 3064 3066 3067 3069 3072 3074 3074 3075 3075 3076 3078 3077 3078 3081 3074 3065 3070 3079 3081 3084 3086 3088 3090 3092 3094 3096 3098 3101 3103 3105 3108 3109
3077 3074 3073 3071 3069 3067 3067 3066 3066 3066 3066 3066 3066 3066 3065 3065 3066 3066 3065 3065 3065 3065 3064 3064 3064 3064 3064 3064 3064 3063 3063 3063 3062 3062 3061 3060 3059 3058 3057 3056 3056 3056 3056 3056 3056 3057 3057 3057 3057 3057 3057 3058 3059 3059 3060 3060 3061 3062 3063 3066 3067 3070 3071 3072 3073 3075 3074 3071 3074 3076 3069 3061 3066 3075 3079 3082 3084 3085 3087 3090 3091 3093 3095 3098 3101 3103 3105 3106
3077 3073 3071 3069 3068 3067 3066 3066 3066 3065 3065 3065 3065 3065 3064 3064 3064 3064 3064 3064 3064 3063 3063 3063 3063 3063 3063 3063 3063 3062 3062 3062 3062 3061 3060 3059 3058 3057 3056 3055 3055 3054 3055 3055 3054 3055 3056 3057 3057 3058 3059 3058 3056 3056 3058 3058 3058 3058 3060 3062 3064 3067 3068 3068 3071 3071 3068 3066 3069 3068 3063 3060 3066 3073 3076 3079 3081 3082 3085 3087 3088 3090 3092 3095 3097 3099 3101 3103
3075 3073 3070 3068 3067 3066 3066 3065 3065 3065 3064 3064 3063 3063 3063 3063 3063 3063 3063 3063 3063 3063 3062 3062 3062 3062 3062 3062 3062 3061 3061 3061 3060 3059 3058 3057 3056 3055 3054 3054 3053 3052 3053 3054 3053 3053 3054 3055 3056 3057 3057 3056 3054 3055 3058 3058 3057 3056 3057 3058 3061 3063 3064 3065 3067 3065 3064 3065 3065 3064 3062 3061 3063 3069 3073 3076 3079 3080 3082 3084 3085 3087 3088 3090 3092 3094 3096 3098
3073 3072 3070 3068 3066 3065 3065 3065 3064 3064 3063 3063 3063 3062 3062 3062 3062 3062 3062 3062 3062 3062 3061 3061 3061 3061 3061 3060 3060 3059 3059 3059 3059 3058 3057 3056 3055 3054 3053 3052 3052 3051 3051 3052 3051 3052 3052 3052 3054 3054 3054 3055 3054 3054 3057 3058 3057 3055 3055 3055 3057 3060 3061 3061 3060 3060 3063 3064 3060 3061 3065 3061 3057 3062 3069 3073 3076 3078 3079 3081 3083 3084 3085 3086 3087 3089 3090 3092
3073 3071 3069 3068 3066 3065 3064 3064 3063 3063 3062 3062 3062 3062 3062 3061 3061 3061 3061 3061 3061 3061 3060 3060 3060 3059 3059 3058 3058 3057 3057 3056 3056 3055 3055 3054 3053 3052 3051 3050 3050 3049 3049 3049 3049 3050 3050 3050 3051 3052 3052 3053 3053 3053 3056 3057 3055 3054 3054 3054 3055 3056 3057 3056 3055 3058 3061 3059 3057 3061 3066 3060 3054 3057 3063 3069 3072 3074 3076 3078 3079 3080 3081 3081 3082 3083 3083 3084
3073 3071 3069 3068 3066 3065 3064 3064 3063 3062 3062 3062 3062 3061 3061 3061 3061 3060 3060 3060 3060 3060 3059 3058 3058 3058 3057 3057 3056 3055 3055 3054 3053 3053 3052 3051 3050 3050 3049 3048 3048 3047 3047 3047 3048 3048 3048 3048 3049 3050 3049 3050 3052 3053 3054 3055 3054 3053 3053 3054 3054 3053 3053 3053 3053 3056 3057 3056 3058 3062 3061 3057 3055 3057 3060 3064 3067 3069 3071 3073 3074 3075 3075 3076 3076 3075 3075 3077
3072 3070 3069 3067 3066 3065 3064 3064 3063 3063 3062 3062 3061 3061 3060 3060 3060 3060 3059 3059 3058 3058 3057 3057 3056 3056 3055 3055 3054 3053 3053 3052 3051 3050 3049 3048 3047 3047 3047 3046 3045 3046 3045 3046 3046 3047 3047 3047 3047 3048 3047 3048 3051 3052 3053 3052 3052 3051 3052 3054 3052 3050 3050 3051 3052 3054 3054 3055 3058 3060 3057 3054 3055 3057 3059 3061 3064 3066 3067 3068 3069 3070 3070 3070 3069 3069 3070 3072
3072 3070 3068 3067 3066 3065 3064 3064 3064 3063 3062 3062 3061 3060 3060 3059 3059 3058 3058 3057 3057 3056 3055 3055 3054 3054 3053 3053 3052 3052 3051 3050 3049 3048 3047 3046 3044 3044 3044 3043 3043 3043 3043 3044 3045 3045 3045 3045 3045 3047 3046 3046 3049 3051 3050 3050 3051 3051 3051 3052 3050 3048 3048 3048 3049 3050 3051 3053 3056 3057 3054 3052 3053 3056 3058 3059 3061 3063 3063 3064 3065 3065 3065 3065 3064 3065 3066 3069
3071 3069 3068 3067 3066 3065 3064 3064 3064 3063 3063 3062 3061 3060 3059 3058 3058 3057 3057 3056 3056 3055 3054 3053 3053 3052 3052 3051 3051 3050 3048 3047 3046 3045 3044 3043 3041 3041 3040 3040 3040 3040 3040 3042 3042 3042 3043 3043 3044 3046 3045 3044 3047 3049 3048 3049 3049 3049 3049 3049 3048 3047 3045 3045 3046 3046 3047 3050 3053 3052 3051 3051 3052 3054 3056 3057 3059 3060 3060 3061 3061 3061 3062 3062 3062 3063 3065 3068